Regional Weather Roundup
Issued by NWS

Home | Current Version | Previous Version | Graphics & Text | Print | Product List | Glossary On
Versions: 1 2 3 4 5 6 7 8 9 10 11 12 13 14 15 16 17 18 19 20 21 22 23 24 25 26 27 28 29 30 31 32 33 34 35 36 37 38 39 40 41 42 43 44 45 46 47 48 49 50
000
ASUS43 KLOT 041908
RWRIL

ILLINOIS REGIONAL WEATHER ROUNDUP
NATIONAL WEATHER SERVICE CHICAGO/ROMEOVILLE IL
200 PM CDT MON MAY 04 2015

NOTE: "FAIR" INDICATES FEW OR NO CLOUDS BELOW 12,000 FEET WITH NO
SIGNIFICANT WEATHER AND/OR OBSTRUCTIONS TO VISIBILITY.

* THESE STATIONS ARE NOT UNDER NWS QUALITY CONTROL. THEY ALSO MAY NOT
  REPORT WEATHER SUCH AS PRECIPITATION OR FOG.

ILZ001-002-007-009-015-016-024-042000-
NORTHWEST ILLINOIS

CITY           SKY/WX    TMP DP  RH WIND       PRES   REMARKS
MOLINE         PTSUNNY   76  63  64 NE9       30.09S
STERLING*      MOSUNNY   72  61  68 E5        30.13R
SAVANNA*       PTSUNNY   72  58  61 CALM      30.12S
$$

ILZ003-004-008-010-011-017-018-042000-
NORTH CENTRAL ILLINOIS

CITY           SKY/WX    TMP DP  RH WIND       PRES   REMARKS
ROCKFORD       PTSUNNY   73  57  57 W7        30.14R
FREEPORT*      PTSUNNY   69  58  67 CALM      30.14S
ROCHELLE*      CLOUDY    67  59  75 CALM      30.14R
DE KALB*       CLOUDY    66  57  72 CALM      30.15R
PERU*          PTSUNNY   74  60  62 N6        30.12S
$$

ILZ005-006-012>014-019>023-042000-
NORTHEAST ILLINOIS

CITY           SKY/WX    TMP DP  RH WIND       PRES   REMARKS
CHICAGO-OHARE  PTSUNNY   71  57  61 SW3       30.11R
CHICAGO-MIDWAY CLOUDY    73  59  61 SW5       30.12R
AURORA         CLOUDY    68  59  73 W8        30.13R
LANSING*       CLOUDY    72  58  61 W5        30.13R
JOLIET*        PTSUNNY   73  60  64 CALM      30.13R
WAUKEGAN       PTSUNNY   64  56  75 NE8       30.12R
DUPAGE AIRPORT CLOUDY    70  58  65 SW5       30.12R
KANKAKEE*      CLOUDY    69  62  78 CALM      30.14S
WHEELING       PTSUNNY   74  55  51 CALM      30.12R
MORRIS*        PTSUNNY   74  60  61 NW3       30.11R
ROMEOVILLE*    CLOUDY    71  58  63 N8        30.13R
NORTHERLY ISL    N/A     60  55  83 N2          N/A
$$

LMZ740>746-042000-
SOUTHERN LAKE MICHIGAN

STATION/POSITION SKY/WX   TEMP    WIND        PRES    VSBY  WAVE
                          AIR SEA DIR/SP/G                  HT/PER
                          (F)     (DEG/KT/KT) (MB)    (MI)  (FT/S)
HARRISON CRIB              61      90/  9/ 10   N/A
BURNHAM HARBOR             59      30/  6/  8   N/A
CALUMET HARBOR             62      80/  5/  7   N/A
BURNS HARBOR               64     250/  2/  5 1020.3S
MICHIGAN CITY              60     240/  4/  5   N/A
MICHIGAN CITY 6N           53 50  360/  8/ 10   N/A           0
ST. JOSEPH                 51 49  300/  4/  4   N/A           1/ 3
$$

ILZ025>027-034>036-040-047-049-050-058-095>099-042000-
WEST-CENTRAL ILLINOIS

CITY           SKY/WX    TMP DP  RH WIND       PRES   REMARKS
QUINCY         PTSUNNY   79  60  52 SW7       30.06F HX  80
GALESBURG*     MOSUNNY   74  62  67 CALM      30.10S
MACOMB*        PTSUNNY   73  63  71 SW9       30.11R
JACKSONVILLE*  PTSUNNY   82  58  43 W9        30.09S HX  82
PITTSFIELD*    PTSUNNY   80  59  47 SW6       30.09F HX  81
$$

ILZ028>032-037-038-041>044-048-051>054-059>061-042000-
CENTRAL ILLINOIS

CITY           SKY/WX    TMP DP  RH WIND       PRES   REMARKS
PONTIAC        CLOUDY    70  66  85 NW6       30.14R
BLOOMINGTON    CLOUDY    71  65  81 NE7       30.14R
DECATUR        CLOUDY    80  58  46 SW13      30.12R HX  80
PEORIA         CLOUDY    73  62  68 N3        30.11R
LACON*         PTSUNNY   70  61  72 CALM      30.11S
LINCOLN*       CLOUDY    77  60  54 CALM      30.09R
SPRINGFIELD    CLOUDY    81  56  42 SW10G18   30.10S HX  81
TAYLORVILLE    CLOUDY    81  55  41 SW13      30.11S HX  80
$$

ILZ033-039-045-046-055>057-062-063-042000-
EAST-CENTRAL ILLINOIS

CITY           SKY/WX    TMP DP  RH WIND       PRES   REMARKS
CHAMPAIGN      CLOUDY    80  59  48 SW18      30.11F HX  81
DANVILLE*      CLOUDY    75  63  65 SW13      30.11S
RANTOUL*       CLOUDY    79  64  60 SW12      30.12S HX  80
MATTOON        PTSUNNY   78  57  48 SW12G21   30.13S
PARIS*         CLOUDY    81  59  47 SW9       30.14S HX  81
$$

ILZ079-100>102-042000-
SOUTHWEST ILLINOIS

CITY           SKY/WX    TMP DP  RH WIND       PRES   REMARKS
ALTON          PTSUNNY   81  50  34 S12       30.11F HX  80
BELLEVILLE     PTSUNNY   83  58  41 VRB7      30.10F HX  83
CAHOKIA*       MOSUNNY   83  55  38 SW9G17    30.10S HX  82
SPARTA*        MOSUNNY   80  59  48 SW15G21   30.14S HX  81
$$

ILZ064>066-069>071-074>076-080>082-084>086-088>090-092>094-042000-
SOUTH-CENTRAL ILLINOIS

CITY           SKY/WX    TMP DP  RH WIND       PRES   REMARKS
CARBONDALE     MOSUNNY   83  59  44 S15G24    30.14F HX  83
CAIRO*         SUNNY     84  56  38 SW14      30.16F HX  83
EFFINGHAM*     PTSUNNY   80  51  36 S10G20    30.14S HX  80
MT. VERNON     PTSUNNY  N/A N/A N/A S17       30.15S
CENTRALIA*     PTSUNNY   83  53  35 S14G25    30.13S HX  82
SALEM*         PTSUNNY   84  52  33 S14G22    30.13F HX  82
METROPOLIS*    MOSUNNY   83  57  41 S12       30.17S HX  82
$$

ILZ067-068-072-073-078-083-087-091-042000-
SOUTHEAST ILLINOIS

CITY           SKY/WX    TMP DP  RH WIND       PRES   REMARKS
LAWRENCEVILLE  PTSUNNY   82  56  40 SW15      30.14F HX  82
FLORA*         PTSUNNY   81  55  41 SW18G24   30.14S HX  81
FAIRFIELD*     PTSUNNY   81  57  43 S14G21    30.13S HX  81
HARRISBURG*    PTSUNNY   82  55  39 SW17G24   30.17S HX  81
ROBINSON*      PTSUNNY   81  56  41 SW7       30.15S HX  81
CARMI*         PTSUNNY   83  49  30 S14       30.14S HX  81
$$

ABBREVIATIONS USED IN REMARKS
   TC - TEMPERATURE IN CELSIUS
  WCI - WIND CHILL INDEX
   HX - HEAT INDEX
  VSB - VISIBILITY
$$




USA.gov is the U.S. government's official web portal to all federal, state and local government web resources and services.